FW5910 Weather Reports


time (UTC)temp
F
wind
direction
speed
knots
gust
knots
rain 1hr
in
rain 24hr
in
rain mn
in
humidity
%
barometer
mb
20260503212832 73 54 1.7 3.5 0.00 0.00 0.00 36 1011.2
20260503212333 75 17 0.9 3.5 0.00 0.00 0.00 34 1011.3
20260503211331 75 139 0.9 5.2 0.00 0.00 0.00 32 1011.5
20260503205832 75 330 0.9 4.3 0.00 0.00 0.00 34 1011.7
20260503205331 74 282 1.7 6.1 0.00 0.00 0.00 36 1011.7
20260503204831 73 146 1.7 6.1 0.00 0.00 0.00 36 1011.8
20260503204331 74 186 0.9 4.3 0.00 0.00 0.00 37 1011.8
20260503203832 74 109 1.7 4.3 0.00 0.00 0.00 34 1011.8
20260503203337 73 137 0.9 3.5 0.00 0.00 0.00 37 1011.9
20260503202833 73 78 0.9 3.5 0.00 0.00 0.00 37 1012.1
20260503202329 73 84 0.9 3.5 0.00 0.00 0.00 38 1012.2
20260503201831 74 151 0.9 3.5 0.00 0.00 0.00 37 1012.2
20260503201330 73 116 0.9 2.6 0.00 0.00 0.00 40 1012.4
20260503200829 72 118 1.7 3.5 0.00 0.00 0.00 35 1012.4
20260503200330 72 79 1.7 3.5 0.00 0.00 0.00 37 1012.5
20260503195330 72 55 1.7 2.6 0.00 0.00 0.00 33 1012.6
20260503194831 72 127 1.7 3.5 0.00 0.00 0.00 35 1012.6
20260503194330 71 61 2.6 6.1 0.00 0.00 0.00 35 1012.6
20260503193829 70 59 2.6 6.1 0.00 0.00 0.00 35 1012.7
20260503192830 71 34 1.7 3.5 0.00 0.00 0.00 31 1012.8
20260503192329 72 16 1.7 2.6 0.00 0.00 0.00 31 1012.9
20260503191829 72 85 1.7 2.6 0.00 0.00 0.00 31 1012.9
20260503191329 72 75 1.7 2.6 0.00 0.00 0.00 32 1013.0
20260503190829 71 30 1.7 3.5 0.00 0.00 0.00 33 1013.1
20260503190329 71 70 0.9 3.5 0.00 0.00 0.00 34 1013.1
20260503185830 70 69 1.7 3.5 0.00 0.00 0.00 35 1013.1
20260503185329 70 74 1.7 3.5 0.00 0.00 0.00 35 1013.2
20260503184829 71 73 0.9 2.6 0.00 0.00 0.00 40 1013.2
20260503184330 71 305 0.9 1.7 0.00 0.00 0.00 40 1013.2
20260503183829 70 145 0.9 3.5 0.00 0.00 0.00 39 1013.2
20260503182830 71 131 0.9 2.6 0.00 0.00 0.00 38 1013.3
20260503182330 70 301 0.9 2.6 0.00 0.00 0.00 38 1013.4
20260503181829 69 47 0.9 3.5 0.00 0.00 0.00 39 1013.6
20260503181331 69 105 0.9 3.5 0.00 0.00 0.00 40 1013.7
20260503180832 69 60 0.9 4.3 0.00 0.00 0.00 42 1013.7
20260503174833 67 36 0.0 1.7 0.00 0.00 0.00 49 1013.9
20260503174333 67 247 0.0 1.7 0.00 0.00 0.00 46 1014.0
20260503173835 67 245 0.0 2.6 0.00 0.00 0.00 46 1014.0
20260503173331 66 336 0.0 2.6 0.00 0.00 0.00 49 1014.1
20260503172832 65 67 0.9 1.7 0.00 0.00 0.00 54 1014.0
20260503172336 63 88 0.9 2.6 0.00 0.00 0.00 53 1014.2
20260503171832 63 76 0.9 2.6 0.00 0.00 0.00 54 1014.2
20260503170831 64 31 0.0 1.7 0.00 0.00 0.00 54 1014.5
20260503170333 62 38 0.9 2.6 0.00 0.00 0.00 57 1014.4
20260503150830 49 67 0.0 0.9 0.00 0.00 0.00 80 1015.5
20260503150329 48 67 0.0 0.9 0.00 0.00 0.00 82 1015.5
20260503131318 38 269 0.0 0.0 0.00 0.00 0.00 93 1015.5
20260503130819 39 269 0.0 0.0 0.00 0.00 0.00 95 1015.5
20260503130319 38 269 0.0 0.0 0.00 0.00 0.00 94 1015.3
20260503110802 41 288 0.0 0.9 0.00 0.00 0.00 90 1015.2
20260503110301 41 288 0.0 1.7 0.00 0.00 0.00 90 1015.2
20260503081301 46 232 0.0 0.0 0.00 0.00 0.00 79 1015.0
20260503080804 46 232 0.0 0.0 0.00 0.00 0.00 79 1015.0
20260503080301 46 232 0.0 0.0 0.00 0.00 0.00 80 1014.9
20260503072806 50 109 0.0 0.0 0.00 0.00 0.00 80 1014.9
20260503072301 50 109 0.0 0.9 0.00 0.00 0.00 80 1014.9
20260503071802 50 109 0.0 0.9 0.00 0.00 0.00 81 1014.9
20260503070756 50 112 0.0 0.9 0.00 0.00 0.00 79 1014.8
20260503070250 50 98 0.0 0.9 0.00 0.00 0.00 79 1014.8
20260503060234 52 88 0.0 1.7 0.00 0.00 0.00 77 1014.4
20260503054730 51 221 0.0 0.9 0.00 0.00 0.00 69 1014.3
20260503054229 51 268 0.0 0.9 0.00 0.00 0.00 72 1014.2
20260503053729 53 123 0.0 0.9 0.00 0.00 0.00 71 1014.1
20260503053230 53 109 0.0 0.9 0.00 0.00 0.00 70 1014.2
20260503052730 52 108 0.0 0.9 0.00 0.00 0.00 70 1014.3
20260503052230 52 118 0.0 0.0 0.00 0.00 0.00 71 1014.2
20260503051732 52 119 0.0 0.0 0.00 0.00 0.00 69 1014.3
20260503051230 52 119 0.0 0.0 0.00 0.00 0.00 69 1014.3
20260503050731 52 119 0.0 0.0 0.00 0.00 0.00 71 1014.3
20260503050229 52 119 0.0 0.0 0.00 0.00 0.00 71 1014.3
20260503045729 52 119 0.0 0.0 0.00 0.00 0.00 70 1014.3
20260503045229 54 119 0.0 0.0 0.00 0.00 0.00 69 1014.3
20260503044729 54 118 0.0 0.0 0.00 0.00 0.00 70 1014.3
20260503044230 54 119 0.0 0.0 0.00 0.00 0.00 67 1014.3
20260503043729 55 119 0.0 0.0 0.00 0.00 0.00 65 1014.2
20260503042730 56 119 0.0 0.0 0.00 0.00 0.00 61 1014.1
20260503042230 56 119 0.0 0.0 0.00 0.00 0.00 65 1014.0
20260503041729 57 118 0.0 0.0 0.00 0.00 0.00 65 1014.0
20260503041230 57 118 0.0 0.9 0.00 0.00 0.00 61 1014.0
20260503040730 58 118 0.0 0.9 0.00 0.00 0.00 63 1014.1
20260503035729 58 122 0.0 0.9 0.00 0.00 0.00 54 1014.1
20260503035230 58 122 0.0 0.9 0.00 0.00 0.00 54 1014.0
20260503034230 58 129 0.0 0.9 0.00 0.00 0.00 53 1014.0
20260503033729 58 129 0.0 0.0 0.00 0.00 0.00 54 1014.0
20260503033231 59 128 0.0 0.9 0.00 0.00 0.00 55 1014.0
20260503032732 59 128 0.0 0.9 0.00 0.00 0.00 55 1013.9
20260503032229 59 128 0.0 0.9 0.00 0.00 0.00 57 1013.9
20260503031730 59 155 0.0 0.0 0.00 0.00 0.00 60 1013.8
20260503031229 60 155 0.0 0.0 0.00 0.00 0.00 54 1013.8
20260503030730 60 155 0.0 0.0 0.00 0.00 0.00 53 1013.8
20260503024729 62 156 0.0 0.0 0.00 0.00 0.00 49 1013.6
20260503024229 63 156 0.0 0.9 0.00 0.00 0.00 49 1013.6
20260503023729 63 155 0.0 0.9 0.00 0.00 0.00 48 1013.7
20260503022730 64 128 0.0 0.0 0.00 0.00 0.00 49 1013.4
20260503022230 64 127 0.0 0.9 0.00 0.00 0.00 48 1013.4
20260503021229 65 117 0.0 0.9 0.00 0.00 0.00 49 1013.6
20260503020229 65 120 0.0 0.9 0.00 0.00 0.00 47 1013.6
20260503015730 65 132 0.0 0.9 0.00 0.00 0.00 45 1013.7
20260503014733 65 177 0.0 0.9 0.00 0.00 0.00 43 1013.7
20260503014229 66 221 0.0 0.0 0.00 0.00 0.00 44 1013.7
20260503013729 67 232 0.0 0.9 0.00 0.00 0.00 43 1013.7
20260503013229 67 232 0.0 0.9 0.00 0.00 0.00 42 1013.7
20260503012730 68 225 0.0 1.7 0.00 0.00 0.00 42 1013.7
20260503012229 70 225 0.0 1.7 0.00 0.00 0.00 43 1013.7
20260503011728 71 306 0.0 0.0 0.00 0.00 0.00 40 1013.6
20260503011229 72 306 0.0 0.0 0.00 0.00 0.00 39 1013.7
20260503010729 72 306 0.0 0.0 0.00 0.00 0.00 38 1013.6
20260503010232 70 306 0.0 0.9 0.00 0.00 0.00 38 1013.7
20260503005731 69 306 0.0 0.9 0.00 0.00 0.00 37 1013.8
20260503005232 70 95 0.0 0.9 0.00 0.00 0.00 39 1013.8
20260503004230 70 94 0.0 0.9 0.00 0.00 0.00 41 1013.8
20260503003730 70 33 0.0 2.6 0.00 0.00 0.00 37 1013.9
20260503003233 70 327 0.0 2.6 0.00 0.00 0.00 37 1013.9
20260503002729 69 330 0.9 3.5 0.00 0.00 0.00 39 1014.0
20260503002229 70 290 0.9 3.5 0.00 0.00 0.00 48 1013.8
20260503001730 70 148 0.0 0.9 0.00 0.00 0.00 45 1013.9
20260503000728 69 79 0.0 1.7 0.00 0.00 0.00 42 1013.9
20260503000229 70 97 0.0 0.9 0.00 0.00 0.00 43 1014.0
20260502235729 69 97 0.0 0.9 0.00 0.00 0.00 38 1014.0
20260502233730 70 67 0.9 3.5 0.00 0.00 0.00 43 1014.2
20260502233229 71 68 0.0 0.9 0.00 0.00 0.00 39 1014.3
20260502232730 71 110 0.0 0.9 0.00 0.00 0.00 37 1014.3
20260502231729 71 219 0.9 2.6 0.00 0.00 0.00 37 1014.5
20260502231229 71 201 0.9 2.6 0.00 0.00 0.00 37 1014.6
20260502230732 72 219 0.0 1.7 0.00 0.00 0.00 39 1014.8
20260502230237 72 165 0.9 1.7 0.00 0.00 0.00 37 1014.8
20260502225733 73 234 0.9 2.6 0.00 0.00 0.00 35 1014.8
20260502225233 73 219 0.9 2.6 0.00 0.00 0.00 34 1014.8
20260502224733 74 231 0.9 1.7 0.00 0.00 0.00 32 1014.9
20260502224233 74 331 0.9 2.6 0.00 0.00 0.00 30 1014.9
20260502223736 74 15 0.9 3.5 0.00 0.00 0.00 32 1014.9
20260502223233 76 320 0.9 3.5 0.00 0.00 0.00 27 1014.9
20260502222233 77 305 0.9 3.5 0.00 0.00 0.00 29 1015.1
20260502221731 76 265 0.9 2.6 0.00 0.00 0.00 33 1015.1
20260502221229 76 234 0.9 2.6 0.00 0.00 0.00 29 1015.1
20260502220729 76 300 0.9 3.5 0.00 0.00 0.00 30 1015.1
20260502220229 75 259 0.9 3.5 0.00 0.00 0.00 32 1015.1
20260502215229 75 321 1.7 4.3 0.00 0.00 0.00 29 1015.1
20260502214731 74 317 1.7 4.3 0.00 0.00 0.00 28 1015.1
20260502213730 74 48 1.7 5.2 0.00 0.00 0.00 28 1015.4